Dewpoint
-8 -1 5 8 10 10 11 11 12 12 12 9 11 6 10 10 7 -1 9 8 8 9 10 13 11 10 7 6 10 7 9 8 9 9 8 8 7 7 3 -8 -10 -6 -4
-13 -12 -7 2 6 9 10 11 11 12 12 10 9 11 8 10 9 6 9 9 8 9 8 13 12 11 7 4 8 9 8 8 9 9 8 8 8 8 4 -1 -10 -10 -6
-14 -14 -13 -11 -3 5 9 10 11 11 11 12 10 9 11 9 9 4 2 9 8 9 8 7 10 11 9 4 10 7 9 9 9 9 8 7 8 6 4 -1 -8 -10 -8
-18 -14 -13 -13 -12 -3 5 9 10 10 11 11 9 11 10 11 9 9 3 8 9 9 8 6 13 11 9 4 10 7 8 8 7 8 7 7 6 5 4 2 -3 -11 -10
-22 -19 -13 -12 -12 -11 -0 7 9 9 10 10 10 10 10 12 10 9 5 8 8 8 7 6 7 12 10 7 10 8 7 8 9 8 6 7 5 4 4 3 -2 -7 -10
-23 -22 -17 -12 -12 -12 -6 3 7 8 9 10 11 11 11 11 10 9 8 8 8 7 7 7 7 10 11 9 9 8 8 8 8 7 7 7 4 3 -1 -5 -3 -5 -8
-22 -21 -21 -14 -11 -11 -11 -3 4 7 9 10 9 11 11 11 10 9 8 8 8 7 7 8 7 6 12 8 10 10 9 8 7 7 7 4 5 4 -2 -9 -5 -3 -7
-21 -21 -20 -19 -11 -11 -10 -9 -1 4 7 8 9 10 10 10 10 10 8 8 8 7 8 7 8 6 8 9 11 10 10 8 7 8 6 7 6 5 2 -6 -7 -2 -5
-20 -20 -20 -19 -16 -10 -10 -9 -6 -1 3 7 7 7 10 10 10 9 9 8 8 8 7 7 8 7 5 10 10 10 10 9 7 6 7 7 7 6 4 1 -6 -4 -3
-19 -19 -20 -20 -19 -15 -11 -9 -9 -6 -2 3 6 7 9 10 10 10 10 9 9 9 8 8 8 8 7 7 9 10 10 9 6 6 9 9 7 7 5 4 -2 -9 -5
-17 -18 -19 -20 -19 -18 -13 -10 -10 -9 -6 -2 1 3 7 9 10 9 9 10 10 9 8 8 8 8 9 6 8 10 9 9 7 9 10 10 9 8 6 5 5 2 -6
-16 -17 -18 -19 -19 -19 -17 -14 -10 -10 -9 -5 -2 2 2 3 9 9 9 9 10 9 8 8 8 7 10 8 6 9 9 9 10 10 11 10 10 9 7 5 5 4 3
-15 -16 -16 -17 -18 -18 -18 -17 -11 -10 -10 -9 -6 -2 1 2 4 6 9 9 9 10 9 9 8 7 7 9 8 9 10 10 10 10 10 9 10 10 9 6 7 5 5
-15 -15 -16 -16 -16 -17 -17 -17 -13 -10 -10 -9 -9 -6 -3 2 3 4 7 9 9 9 9 9 8 8 7 7 11 9 10 11 10 9 8 6 7 10 9 7 8 7 7
-15 -14 -14 -15 -15 -16 -16 -16 -15 -10 -8 -8 -8 -9 -7 -1 3 3 6 8 9 9 9 9 9 8 8 7 8 11 11 11 10 8 5 4 5 9 10 8 8 8 8
-15 -15 -14 -14 -15 -14 -15 -15 -15 -11 -9 -9 -8 -7 -6 -6 -2 1 4 6 7 9 8 8 9 8 7 7 6 5 7 9 7 5 3 4 6 8 9 8 9 8 8
-14 -14 -14 -14 -14 -14 -14 -13 -13 -14 -10 -8 -8 -7 -7 -8 -5 -2 1 3 6 9 9 9 9 8 8 7 7 7 6 5 6 5 3 4 5 6 9 9 8 8 9
-14 -14 -14 -13 -13 -13 -13 -12 -12 -12 -11 -9 -9 -8 -8 -7 -8 -6 -1 2 5 7 8 9 8 9 8 8 7 7 7 6 6 6 4 4 4 5 8 9 6 6 6
-13 -13 -13 -13 -13 -13 -13 -12 -11 -12 -12 -10 -9 -8 -8 -8 -8 -8 -3 1 2 6 7 8 9 9 9 8 8 8 8 7 7 7 5 4 4 5 7 5 5 5 5
-13 -13 -13 -13 -13 -13 -13 -13 -13 -13 -12 -10 -9 -9 -8 -7 -6 -6 -6 -3 1 4 6 7 8 9 9 8 8 8 8 8 7 7 7 5 5 5 5 6 6 5 5
-12 -13 -12 -13 -13 -12 -12 -13 -12 -11 -10 -10 -10 -8 -8 -8 -7 -6 -6 -4 -1 0 3 4 7 8 9 9 9 8 8 8 8 8 8 7 6 5 5 5 5 5 5
-11 -11 -12 -12 -12 -12 -12 -11 -10 -10 -10 -9 -9 -9 -8 -8 -7 -6 -6 -5 -4 -1 2 2 3 8 8 8 8 8 8 8 8 8 8 8 7 6 6 5 5 5 5
-11 -11 -11 -11 -12 -12 -12 -11 -10 -9 -9 -9 -9 -9 -8 -8 -7 -6 -6 -5 -5 -3 0 1 1 5 8 8 8 8 8 8 8 7 8 8 8 7 6 6 6 6 6
-10 -11 -11 -11 -11 -12 -11 -10 -10 -9 -9 -9 -9 -9 -9 -8 -7 -7 -6 -6 -6 -6 -5 1 2 5 6 7 8 7 7 8 8 7 7 8 7 7 6 6 6 6 6
-10 -10 -11 -11 -11 -11 -11 -11 -10 -9 -9 -9 -9 -9 -8 -8 -7 -6 -6 -5 -4 -5 -6 -4 0 3 3 5 6 7 8 8 7 7 7 7 7 7 7 7 7 7 7
-10 -10 -11 -11 -11 -11 -11 -10 -9 -8 -8 -8 -8 -8 -7 -7 -6 -6 -5 -5 -5 -4 -6 -6 -3 1 3 4 5 7 8 7 8 7 7 7 7 7 7 7 7 7 7
Wind_Speed
21 19 19 20 20 21 20 31 32 32 35 37 37 38 35 32 29 27 33 30 28 24 19 33 31 26 24 24 25 26 30 27 23 20 17 12 7 2 3 6 9 12 12
24 23 20 19 21 20 17 24 34 34 32 42 44 41 39 36 31 31 36 31 29 26 23 33 34 30 25 24 26 25 30 29 24 22 17 12 8 5 4 6 9 12 12
24 24 23 21 20 20 18 22 26 31 34 48 41 42 40 40 33 29 37 33 30 28 27 25 28 32 28 26 27 29 29 27 23 22 20 13 11 9 7 7 8 11 13
23 23 23 23 22 18 18 19 20 24 19 43 43 41 45 42 36 30 35 36 33 31 28 27 30 35 29 28 30 31 31 28 21 20 19 16 13 10 9 10 10 12 13
22 23 22 22 22 20 16 20 22 16 24 26 39 41 43 42 37 32 36 37 33 32 28 26 27 39 33 30 31 31 30 28 26 24 18 16 13 11 10 11 12 13 14
23 22 21 21 21 20 17 18 22 25 21 29 30 44 44 42 39 37 39 36 35 33 30 26 29 34 33 32 33 32 34 32 30 25 22 18 14 11 9 10 15 16 15
24 23 21 21 20 19 18 17 19 22 26 19 30 33 50 43 44 41 39 39 38 35 33 29 28 35 37 34 34 34 35 34 30 27 24 18 15 11 8 7 12 17 16
25 23 22 21 20 19 18 18 16 19 18 17 15 33 23 33 39 39 42 42 40 38 34 31 30 34 40 38 36 36 36 35 32 29 24 19 16 12 9 8 12 16 17
26 24 22 21 21 19 19 18 16 17 18 21 14 11 14 16 36 42 44 45 46 42 38 35 35 36 40 42 41 39 39 37 34 29 26 24 20 15 12 11 12 15 19
27 25 23 22 21 20 18 19 17 17 18 23 17 22 25 12 24 23 46 46 47 44 41 39 34 37 41 45 42 41 41 40 38 34 31 28 22 19 16 14 14 13 18
28 26 24 22 22 22 18 19 19 18 17 20 21 18 19 19 25 27 32 44 45 47 44 40 38 35 42 48 49 46 44 43 39 34 31 27 24 23 20 18 16 16 15
31 29 26 24 22 22 22 21 20 19 19 20 23 20 18 12 13 13 31 43 43 49 46 42 39 35 40 50 50 49 48 44 40 36 36 30 26 25 22 22 19 17 17
35 31 28 25 23 22 23 23 21 20 19 21 21 24 23 24 21 19 15 32 39 38 44 45 41 37 38 49 53 52 50 47 42 37 33 31 30 30 23 24 24 21 20
34 32 29 27 26 23 22 23 22 22 20 22 24 23 25 26 25 22 19 21 28 38 42 48 44 41 39 37 50 55 56 47 43 39 35 34 32 35 29 27 25 24 23
33 32 29 27 27 23 22 23 23 22 21 21 23 25 24 26 28 24 19 25 32 34 42 43 46 48 42 38 38 54 53 46 46 39 37 37 37 37 36 29 28 26 22
31 30 28 26 25 25 23 22 23 22 21 22 22 22 25 27 29 25 26 31 16 43 37 47 47 47 46 43 40 39 42 44 42 38 35 35 38 39 40 31 29 28 27
28 28 27 25 24 24 23 23 23 23 21 20 23 25 24 27 28 30 29 27 29 21 43 41 47 49 49 50 45 40 40 41 39 35 33 34 35 39 38 35 31 30 28
26 26 25 25 24 23 23 23 24 23 24 23 23 24 25 23 27 31 31 28 30 24 25 36 45 49 49 47 47 44 43 41 38 36 32 34 34 35 37 36 32 31 30
26 25 25 25 25 24 24 23 25 25 24 24 23 24 26 25 26 24 26 25 27 31 31 25 46 50 56 47 46 46 44 42 40 36 35 33 36 36 36 36 34 31 29
27 26 25 25 25 24 24 24 25 26 24 24 23 23 25 26 27 27 29 29 28 25 34 21 47 51 58 49 44 48 48 47 43 40 39 38 35 37 38 37 35 33 32
26 25 25 24 23 24 25 24 22 23 25 25 25 24 25 26 25 25 26 28 32 34 31 20 34 46 49 49 54 51 47 48 46 46 45 45 42 42 41 39 37 35 32
25 24 23 23 23 24 24 23 24 27 28 28 28 28 28 28 26 26 27 26 25 33 36 35 13 41 48 55 51 51 51 49 48 52 48 48 48 47 45 42 40 36 34
23 23 22 22 23 23 22 22 23 25 26 28 30 31 30 29 26 27 27 27 29 30 40 40 36 15 33 49 50 54 52 53 51 47 51 49 49 48 46 43 40 37 34
23 23 22 20 20 20 19 21 21 23 27 30 32 32 32 32 30 28 29 31 31 33 39 47 48 32 26 26 44 49 52 54 49 48 44 47 51 49 45 42 39 37 36
21 22 20 19 20 21 18 19 19 21 25 27 28 29 29 30 28 27 28 30 31 37 36 42 43 44 36 29 34 49 52 51 47 49 45 45 48 45 45 39 37 37 37
19 19 20 19 19 20 17 16 19 20 23 24 24 26 25 27 27 26 28 30 33 36 34 36 51 53 47 37 28 56 58 53 48 43 46 41 37 35 35 38 36 36 35
Wind_Direction
303 294 283 276 270 264 266 249 244 243 243 244 242 232 230 229 229 229 219 219 224 232 234 214 208 207 203 196 189 190 188 184 188 183 188 179 181 175 166 177 177 170 163
310 303 296 287 281 274 272 262 244 250 249 239 244 238 232 231 233 234 221 221 223 229 235 212 204 204 205 198 187 194 185 187 187 184 189 194 200 233 230 196 196 187 178
314 308 303 297 289 280 268 268 255 248 269 234 238 243 237 234 231 229 221 221 221 225 236 239 231 205 201 197 189 195 190 187 192 186 192 191 216 229 213 202 200 203 189
318 313 307 301 297 292 278 267 262 239 236 233 234 240 239 235 228 229 224 220 220 224 231 235 213 200 201 193 193 191 193 191 194 192 192 206 215 223 218 214 209 207 199
323 318 312 306 301 294 283 269 269 268 241 225 233 237 242 236 231 229 221 220 220 221 233 227 221 212 202 190 192 195 193 190 191 197 203 208 219 224 220 222 217 208 202
321 321 316 310 304 295 287 272 269 264 243 230 240 242 235 231 232 226 220 221 219 220 229 231 226 217 201 193 197 197 195 195 195 197 206 213 213 206 211 223 207 204 201
317 320 319 315 308 301 292 288 275 268 244 249 246 233 224 237 223 226 223 225 219 222 225 227 231 221 218 201 199 202 197 196 195 196 204 207 202 201 201 199 204 204 203
315 317 320 317 312 303 296 288 282 278 259 236 246 233 227 238 239 221 227 228 221 223 221 226 222 223 216 209 203 205 203 200 197 198 203 207 203 202 205 204 205 205 206
315 315 316 314 312 309 301 296 286 281 276 224 221 258 205 207 204 225 226 228 224 223 225 224 225 224 216 215 207 206 205 203 201 198 202 208 211 209 209 209 206 205 204
317 315 313 311 308 308 300 294 289 280 276 268 252 234 225 257 199 207 212 214 218 222 222 220 226 225 216 216 213 208 206 208 204 202 203 208 212 214 213 207 201 205 205
317 316 314 310 306 304 298 294 291 279 272 272 269 267 240 220 230 196 197 207 218 221 224 221 226 227 218 213 214 212 211 208 206 211 213 213 215 218 216 209 205 205 204
318 317 315 310 305 303 300 296 290 282 272 265 266 262 263 257 212 227 217 204 207 218 218 220 223 226 217 212 215 214 214 208 209 214 211 217 220 218 217 212 210 209 209
318 316 315 311 305 302 300 296 292 285 276 269 268 261 252 251 242 262 251 192 198 210 210 217 222 224 222 217 215 213 214 209 212 214 214 222 221 224 223 213 213 211 210
311 315 312 311 306 301 298 297 291 290 284 272 269 266 264 252 250 255 235 234 191 205 211 217 218 223 225 230 221 213 216 209 211 218 225 228 226 225 225 215 215 214 212
307 310 307 304 304 299 299 295 290 290 288 280 274 268 269 261 254 259 233 244 219 202 213 215 213 218 220 223 226 213 220 211 216 218 227 228 222 221 224 217 215 219 216
303 305 306 304 300 299 297 293 287 286 287 281 280 275 264 261 257 254 245 246 265 211 213 221 220 220 220 217 218 219 218 216 218 220 224 222 218 219 221 218 214 218 220
302 301 302 301 299 294 295 290 284 282 288 286 274 275 270 266 260 261 255 258 244 221 211 216 223 224 223 218 215 216 217 215 213 214 217 215 214 216 218 219 218 220 224
300 300 300 297 296 292 291 287 283 280 277 281 283 278 273 269 262 261 260 255 237 238 228 205 219 219 220 220 218 214 213 212 210 211 213 213 214 214 216 215 218 220 224
299 297 294 293 293 290 288 283 280 280 278 277 280 277 274 274 272 268 268 255 264 235 239 241 222 227 219 214 214 214 216 212 211 211 214 214 215 216 214 220 222 225 228
298 295 292 290 288 288 286 282 279 279 277 275 277 278 276 271 268 263 263 255 254 247 237 253 224 223 214 208 213 213 213 218 215 215 214 216 215 216 217 222 226 229 231
303 298 293 289 286 285 285 283 280 281 280 281 279 281 278 276 273 268 263 260 254 252 247 260 228 200 202 207 209 212 214 216 217 221 216 214 214 217 217 220 224 227 230
306 301 294 289 285 282 282 273 268 271 275 276 277 277 277 276 271 270 265 262 258 256 246 253 278 203 205 213 213 216 215 214 217 221 220 219 216 218 219 221 224 225 228
308 301 297 292 287 284 281 272 269 268 270 273 275 277 275 272 271 271 268 263 255 252 243 249 254 206 201 212 223 218 217 217 218 219 216 220 219 223 223 223 227 229 229
310 306 301 296 292 287 286 274 271 270 268 271 272 271 273 273 271 265 267 265 258 253 250 244 251 232 208 207 229 235 227 221 219 222 219 215 220 220 224 225 226 230 233
306 311 305 301 296 291 289 279 274 274 276 276 275 276 273 272 268 263 260 263 265 255 248 240 244 240 234 228 224 225 212 210 212 219 217 218 222 224 224 226 227 227 230
315 307 306 304 301 299 299 287 274 272 275 275 281 283 276 268 267 264 257 256 259 262 257 251 244 245 244 234 231 219 217 216 212 216 220 216 219 218 221 225 222 218 218
Height
1498 1496 1496 1495 1494 1493 1494 1496 1498 1499 1502 1504 1507 1509 1511 1514 1516 1519 1520 1522 1525 1526 1527 1528 1530 1533 1536 1538 1539 1542 1544 1546 1549 1552 1554 1556 1557 1558 1558 1559 1560 1561 1563
1495 1492 1490 1489 1488 1488 1488 1489 1490 1491 1492 1496 1499 1503 1505 1508 1511 1513 1516 1517 1520 1522 1524 1523 1525 1529 1532 1535 1537 1540 1543 1545 1547 1550 1552 1554 1556 1557 1558 1559 1560 1561 1562
1491 1488 1486 1484 1482 1483 1482 1482 1484 1485 1485 1484 1490 1495 1499 1502 1505 1507 1510 1513 1515 1518 1520 1521 1521 1524 1528 1531 1534 1538 1541 1544 1546 1548 1550 1552 1555 1556 1556 1557 1559 1560 1561
1488 1485 1483 1480 1478 1477 1478 1477 1476 1476 1476 1475 1477 1485 1491 1495 1498 1501 1503 1507 1510 1513 1515 1517 1517 1518 1523 1527 1531 1534 1539 1542 1545 1548 1549 1551 1553 1554 1554 1555 1557 1559 1560
1485 1481 1480 1477 1474 1472 1471 1471 1470 1468 1469 1469 1476 1477 1482 1486 1489 1494 1496 1500 1504 1508 1510 1513 1515 1516 1519 1522 1527 1531 1535 1539 1542 1545 1547 1549 1550 1551 1552 1553 1554 1556 1558
1482 1477 1476 1474 1471 1469 1466 1465 1465 1463 1464 1466 1465 1472 1474 1476 1484 1487 1491 1494 1498 1502 1506 1509 1511 1512 1513 1518 1523 1527 1530 1534 1537 1541 1544 1546 1548 1548 1549 1549 1551 1553 1556
1478 1474 1471 1470 1467 1465 1462 1461 1460 1459 1459 1461 1462 1460 1462 1469 1474 1480 1484 1488 1491 1495 1500 1503 1505 1507 1511 1514 1519 1523 1526 1529 1533 1537 1541 1543 1545 1546 1546 1547 1548 1551 1553
1474 1470 1467 1465 1463 1460 1458 1456 1455 1453 1454 1456 1457 1457 1456 1459 1462 1467 1476 1481 1484 1489 1492 1496 1499 1501 1505 1510 1514 1519 1522 1525 1529 1533 1537 1540 1542 1543 1544 1545 1546 1549 1551
1469 1466 1464 1461 1459 1456 1454 1452 1450 1449 1447 1449 1449 1449 1447 1446 1451 1459 1465 1473 1478 1481 1485 1489 1492 1495 1498 1504 1508 1513 1517 1521 1525 1528 1532 1535 1537 1539 1541 1542 1544 1546 1548
1465 1462 1460 1457 1455 1452 1449 1447 1446 1445 1444 1442 1441 1443 1439 1442 1442 1451 1456 1460 1469 1474 1478 1481 1485 1489 1492 1497 1502 1507 1511 1516 1520 1524 1527 1530 1533 1535 1537 1539 1541 1543 1546
1461 1458 1455 1451 1450 1448 1444 1442 1441 1441 1440 1439 1436 1435 1434 1436 1436 1437 1442 1449 1458 1465 1471 1474 1478 1481 1485 1490 1495 1500 1505 1510 1514 1519 1522 1525 1529 1531 1533 1536 1538 1540 1542
1455 1452 1449 1446 1444 1442 1439 1437 1436 1435 1434 1433 1432 1429 1432 1432 1434 1434 1436 1439 1444 1454 1463 1466 1468 1473 1477 1482 1488 1493 1497 1503 1508 1513 1516 1520 1523 1527 1529 1532 1535 1537 1540
1448 1446 1443 1441 1438 1436 1434 1431 1429 1428 1428 1427 1426 1426 1426 1425 1426 1430 1431 1431 1435 1444 1452 1455 1460 1466 1470 1475 1480 1486 1490 1495 1502 1507 1511 1515 1519 1521 1525 1528 1531 1533 1536
1443 1440 1437 1435 1432 1430 1428 1426 1424 1423 1422 1420 1419 1419 1419 1418 1419 1422 1424 1429 1429 1436 1441 1443 1452 1458 1462 1465 1470 1477 1479 1486 1493 1500 1504 1509 1514 1516 1520 1523 1527 1529 1532
1436 1434 1431 1428 1425 1424 1422 1420 1418 1417 1416 1415 1413 1411 1411 1412 1412 1416 1416 1421 1422 1425 1428 1433 1440 1448 1455 1459 1462 1468 1464 1476 1481 1491 1497 1501 1507 1510 1513 1517 1521 1525 1529
1429 1426 1423 1421 1419 1416 1415 1414 1412 1410 1410 1408 1407 1406 1405 1406 1409 1408 1410 1415 1411 1415 1420 1424 1429 1439 1447 1453 1456 1462 1468 1473 1478 1484 1489 1494 1499 1503 1507 1511 1516 1519 1523
1422 1418 1416 1413 1412 1410 1409 1407 1406 1404 1403 1403 1403 1400 1399 1399 1398 1402 1407 1407 1406 1405 1410 1418 1421 1432 1439 1443 1448 1455 1463 1467 1472 1477 1482 1487 1491 1496 1501 1505 1510 1514 1517
1415 1411 1408 1406 1404 1403 1402 1400 1398 1398 1396 1396 1395 1394 1393 1396 1396 1398 1398 1396 1395 1402 1405 1407 1414 1422 1427 1434 1441 1447 1453 1458 1463 1470 1475 1480 1485 1489 1493 1498 1503 1507 1511
1407 1404 1401 1398 1397 1395 1394 1393 1391 1390 1389 1388 1388 1387 1386 1386 1385 1385 1389 1382 1392 1393 1396 1399 1403 1412 1417 1424 1431 1440 1444 1450 1456 1462 1469 1474 1478 1483 1487 1492 1496 1500 1504
1398 1395 1393 1391 1389 1387 1386 1385 1383 1382 1381 1381 1381 1381 1381 1381 1380 1378 1378 1383 1384 1383 1390 1390 1395 1401 1403 1412 1418 1426 1432 1440 1446 1453 1460 1467 1472 1476 1480 1485 1490 1494 1497
1390 1387 1384 1382 1381 1379 1378 1376 1375 1374 1373 1373 1373 1374 1375 1375 1375 1375 1376 1378 1379 1380 1382 1385 1385 1387 1392 1400 1406 1414 1420 1430 1436 1445 1450 1455 1462 1467 1471 1476 1481 1485 1490
1382 1379 1376 1375 1373 1371 1370 1370 1370 1369 1367 1366 1365 1366 1367 1367 1367 1368 1370 1373 1369 1371 1372 1376 1375 1375 1380 1390 1398 1404 1414 1420 1427 1433 1442 1447 1450 1455 1462 1466 1471 1476 1482
1375 1371 1369 1367 1365 1363 1362 1362 1362 1361 1360 1359 1359 1358 1357 1358 1359 1358 1359 1359 1360 1364 1362 1369 1370 1366 1373 1379 1388 1397 1403 1410 1415 1421 1431 1437 1441 1446 1453 1458 1463 1469 1475
1368 1364 1361 1359 1357 1355 1354 1355 1355 1354 1353 1351 1350 1350 1349 1348 1349 1350 1350 1349 1350 1351 1355 1360 1361 1360 1363 1373 1381 1386 1395 1403 1410 1415 1422 1425 1428 1437 1445 1448 1454 1461 1467
1361 1358 1355 1352 1350 1348 1348 1346 1347 1346 1345 1343 1341 1340 1340 1339 1340 1342 1343 1342 1343 1343 1348 1350 1353 1353 1358 1367 1370 1378 1384 1390 1399 1405 1412 1417 1422 1429 1435 1439 1445 1452 1457
1356 1352 1349 1346 1344 1341 1340 1339 1340 1339 1337 1335 1333 1331 1331 1331 1332 1335 1335 1336 1334 1333 1336 1337 1340 1342 1348 1353 1360 1367 1370 1379 1388 1396 1399 1410 1415 1421 1427 1431 1435 1441 1447